SINAH 1

Last updated on Thu Oct 30 2025 00:02:30 GMT+0000 (Coordinated Universal Time)

1 28893U 05043D 25302.52793904 .00000708 00000+0 14478-3 0 9994 2 28893 98.2566 70.9793 0013308 279.5679 80.4019 14.63885830 66777
UTC large
Height (km)
Speed (km/s)
/
Latitude / Longitude
Inclination (degrees)
Orbital Period (minutes)
Azimuth
Elevation
Range (km)
Doppler Factor

Next 0 passes for location: London (51.5072 / 0.1276)

Sorry there are no passes over London.